"Pseudo-MPEC" for P11kncU

Created 2021 Sep 20 18:07:07 UT using Find_Orb

Click here for an explanation of pseudo-MPECs

 
 Astrometry: 
     P11kncU  C2021 09 07s_Astrometry50L1mNV(6=jy#j:(w.KD6%QS+M.T7[9'E?l9mHu^F51
     P11kncU  C2021 09 07ef]hVQp.9u,OU7\`dEnVa7L)?MQ:1n^7yredacted;.y8^+clickF51
     P11kncU  C2021 09 07A9B$yahereIGq)..Uh7N;forhiM^Iuv`O*_ghjc'ggZNj[EMiS]1F51
     P11kncU  C2021 09 07j1M2TTp$OlexplanationdXPJF?nc[P5ctpb!:;^K_JRq$,A(6gmF51

Station data:
(F51) Pan-STARRS 1, Haleakala  (N20.707235 W156.255910)  US/Hawaii.
   Observers N. Primak, A. Schultz, S. Watters, J. Thiel, T. Goggia. Measurer
   PS1 Science Consortium. 1.8-m Ritchey-Chrétien + CCD.

Orbital elements:  P11kncU
   Perihelion 2021 Jul 23.499683 +/- 64.3955 TT = 11:59:32 (JD 2459418.999683)
Epoch 2021 Sep  8.0 TT = JDT 2459465.5   Earth MOID: 0.2938   Ma: 0.0978
M  20.44750903 +/- 67.456161        (J2000 ecliptic)          AutoNEOCP
n   0.43972837 +/- 0.453993         Peri.  240.51773 +/- 114.97416
a   1.71269377 +/- 1.17881          Node    85.51470 +/- 42.156472
e   0.2920239 +/- 0.250226          Incl.   19.04895 +/- 22.156297
P   2.24/818.67d           H 20.3   G  0.15   U 12.2  SR
q 1.21254615 +/- 0.491507    Q 2.21284139 +/- 38.2188
From 4 observations 2021 Sept. 7 (52.2 min); mean residual 0".05
Residuals in arcseconds: 
210907 F51  .06-  .04+    210907 F51  .01-  .04+    
210907 F51  .08+  .07-    210907 F51  .02-  .01-    

Ephemerides (geocentric):
Date (UTC) HH   RA              Dec         delta   r     elong  mag " sig PA
---- -- -- --  -------------   -----------  ------ ------ -----  --- ---- ---
2021 09 20 18  04 28 44.286   -24 24 41.42  .56995 1.3073 109.2 21.5  56d 162
2021 09 20 19  04 28 45.212   -24 24 41.38  .56990 1.3074 109.2 21.5  56d 162
2021 09 20 20  04 28 46.131   -24 24 41.33  .56985 1.3076 109.2 21.5  56d 162
2021 09 20 21  04 28 47.043   -24 24 41.26  .56980 1.3077 109.2 21.4  56d 162
2021 09 20 22  04 28 47.949   -24 24 41.19  .56975 1.3078 109.3 21.4  56d 162
2021 09 20 23  04 28 48.848   -24 24 41.10  .56970 1.3079 109.3 21.4  56d 162
2021 09 21 00  04 28 49.740   -24 24 40.99  .56965 1.3080 109.3 21.4  56d 162
2021 09 21 01  04 28 50.626   -24 24 40.87  .56960 1.3082 109.3 21.4  56d 162
2021 09 21 02  04 28 51.505   -24 24 40.74  .56955 1.3083 109.4 21.4  56d 162
2021 09 21 03  04 28 52.378   -24 24 40.59  .56950 1.3084 109.4 21.4  57d 162
2021 09 21 04  04 28 53.243   -24 24 40.43  .56945 1.3085 109.4 21.4  57d 162
2021 09 21 05  04 28 54.102   -24 24 40.25  .56940 1.3087 109.4 21.4  57d 162
2021 09 21 06  04 28 54.954   -24 24 40.07  .56935 1.3088 109.5 21.4  57d 163
2021 09 21 07  04 28 55.800   -24 24 39.86  .56930 1.3089 109.5 21.4  57d 163
2021 09 21 08  04 28 56.639   -24 24 39.64  .56925 1.3090 109.5 21.4  57d 163
2021 09 21 09  04 28 57.471   -24 24 39.41  .56920 1.3092 109.5 21.4  57d 163
2021 09 21 10  04 28 58.296   -24 24 39.17  .56915 1.3093 109.5 21.4  57d 163
2021 09 21 11  04 28 59.115   -24 24 38.91  .56910 1.3094 109.6 21.4  57d 163
2021 09 21 12  04 28 59.927   -24 24 38.63  .56905 1.3095 109.6 21.4  57d 163
2021 09 21 13  04 29 00.732   -24 24 38.34  .56900 1.3097 109.6 21.4  57d 163
2021 09 21 14  04 29 01.531   -24 24 38.04  .56895 1.3098 109.6 21.4  57d 163
2021 09 21 15  04 29 02.323   -24 24 37.72  .56890 1.3099 109.7 21.4  57d 163
2021 09 21 16  04 29 03.108   -24 24 37.39  .56885 1.3100 109.7 21.4  57d 163
2021 09 21 17  04 29 03.886   -24 24 37.04  .56880 1.3102 109.7 21.4  57d 163
2021 09 21 18  04 29 04.658   -24 24 36.68  .56875 1.3103 109.7 21.4  57d 163
2021 09 21 19  04 29 05.423   -24 24 36.31  .56870 1.3104 109.8 21.4  58d 163
2021 09 21 20  04 29 06.181   -24 24 35.91  .56865 1.3105 109.8 21.4  58d 163
2021 09 21 21  04 29 06.932   -24 24 35.51  .56860 1.3106 109.8 21.4  58d 163
2021 09 21 22  04 29 07.677   -24 24 35.09  .56854 1.3108 109.8 21.4  58d 163
2021 09 21 23  04 29 08.415   -24 24 34.65  .56849 1.3109 109.9 21.4  58d 163
2021 09 22 00  04 29 09.146   -24 24 34.20  .56844 1.3110 109.9 21.4  58d 163
2021 09 22 01  04 29 09.871   -24 24 33.74  .56839 1.3111 109.9 21.4  58d 163
2021 09 22 02  04 29 10.589   -24 24 33.26  .56834 1.3113 109.9 21.4  58d 163
2021 09 22 03  04 29 11.300   -24 24 32.76  .56829 1.3114 110.0 21.4  58d 163
2021 09 22 04  04 29 12.004   -24 24 32.25  .56824 1.3115 110.0 21.4  58d 163
2021 09 22 05  04 29 12.701   -24 24 31.72  .56819 1.3116 110.0 21.4  58d 163
2021 09 22 06  04 29 13.392   -24 24 31.18  .56814 1.3118 110.0 21.4  58d 163
2021 09 22 07  04 29 14.076   -24 24 30.63  .56809 1.3119 110.0 21.4  58d 163
2021 09 22 08  04 29 14.753   -24 24 30.06  .56804 1.3120 110.1 21.4  58d 163
2021 09 22 09  04 29 15.424   -24 24 29.47  .56798 1.3121 110.1 21.4  58d 163
2021 09 22 10  04 29 16.087   -24 24 28.87  .56793 1.3123 110.1 21.4  58d 163
2021 09 22 11  04 29 16.744   -24 24 28.25  .56788 1.3124 110.1 21.4  58d 163
2021 09 22 12  04 29 17.394   -24 24 27.62  .56783 1.3125 110.2 21.4  58d 163
2021 09 22 13  04 29 18.038   -24 24 26.97  .56778 1.3126 110.2 21.4  58d 163
2021 09 22 14  04 29 18.674   -24 24 26.30  .56773 1.3128 110.2 21.4  58d 163
2021 09 22 15  04 29 19.304   -24 24 25.62  .56768 1.3129 110.2 21.4  58d 163
2021 09 22 16  04 29 19.927   -24 24 24.93  .56763 1.3130 110.3 21.4  59d 163
2021 09 22 17  04 29 20.543   -24 24 24.22  .56757 1.3131 110.3 21.4  59d 163